Location: ActonStarParty
(42.4766°N, 71.4538°W)
Time: 03:50:27
(UTC-04:00)

Cosmos 1300 - Visible Passes

Search period start: 24 April 2014 00:00
Search period end: 04 May 2014 00:00
Orbit: 533 x 534 km, 82.5° (Epoch: 23 April)

Date Brightness Start Highest point End Pass type
(mag) Time Alt. Az. Time Alt. Az. Time Alt. Az.
26 Apr 6.1 05:12:10 10° NNE 05:14:46 17° ENE 05:17:22 10° ESE visible
27 Apr 6.1 05:02:51 10° NNE 05:05:22 16° ENE 05:07:52 10° ESE visible
28 Apr 6.1 04:53:31 10° NNE 04:55:57 16° ENE 04:58:21 10° ESE visible
29 Apr 6.1 04:44:11 10° NE 04:46:31 15° ENE 04:48:49 10° ESE visible
30 Apr 6.1 04:34:51 10° NE 04:37:04 14° ENE 04:39:16 10° ESE visible
01 May 6.1 04:25:31 10° NE 04:27:36 14° ENE 04:29:41 10° ESE visible
02 May 6.1 04:16:11 10° NE 04:18:08 13° ENE 04:20:05 10° E visible
03 May 6.1 04:06:50 10° NE 04:08:39 13° ENE 04:10:27 10° E visible
